Kuchera_Ratio
0.0 0.0 0.0 0.0 0.0 0.0 0.0 0.0 0.0 0.0 0.0 0.0 0.0 0.0 0.0 0.0 0.0 0.0 0.0 0.0 0.0 0.0 0.0 0.0 0.0 0.0 0.0 0.0 0.0 0.0 0.0 0.0 0.0 0.0 0.0 0.0 0.0 0.0
2.2 2.7 2.3 3.4 1.6 0.0 0.0 0.0 1.2 0.0 0.0 0.0 0.0 0.0 0.0 0.0 0.0 0.0 0.0 0.0 0.0 0.0 0.0 0.0 0.0 0.0 0.0 0.0 0.0 0.0 0.0 0.0 0.0 0.0 0.0 0.0 0.0 0.0
6.7 6.6 4.9 3.5 4.2 2.7 2.3 0.8 0.5 1.0 3.0 3.2 2.3 2.0 2.0 1.6 0.5 0.0 0.0 0.0 0.0 0.0 0.0 0.0 0.0 0.0 0.0 0.0 0.0 0.0 0.0 0.0 0.0 0.0 0.0 0.0 0.0 0.0
9.5 9.5 9.4 7.8 8.1 7.6 6.5 3.9 3.5 4.2 3.5 3.6 4.4 4.4 5.1 5.7 5.1 4.3 1.6 0.0 0.0 0.0 0.0 0.0 0.0 0.0 0.0 0.0 0.0 0.0 0.0 0.0 0.0 0.0 0.0 0.0 0.0 0.0
10.5 10.6 11.1 10.3 10.2 10.1 9.8 10.0 8.6 7.9 6.7 6.2 6.5 6.0 5.7 8.4 8.6 8.8 7.4 4.6 2.3 0.0 0.0 0.0 0.0 0.0 0.0 0.0 0.0 0.0 0.0 0.0 0.0 0.0 0.0 0.0 0.0 0.0
11.9 11.7 11.6 11.5 11.7 12.1 11.2 10.6 10.1 11.3 11.4 10.4 10.0 9.6 8.9 9.1 10.1 10.8 11.4 7.9 7.0 0.7 0.0 0.0 0.0 0.0 0.0 0.0 0.0 0.0 0.0 0.0 0.0 0.0 0.0 0.0 0.0 0.0
12.5 10.7 9.0 6.7 5.5 7.3 10.9 12.2 11.4 12.1 11.9 12.4 13.0 13.0 12.3 11.5 11.1 11.9 11.5 8.6 8.3 7.1 6.2 4.2 0.4 0.0 0.0 0.0 0.0 0.0 0.0 0.0 0.0 0.0 0.0 0.0 0.0 0.0
12.9 12.3 10.0 9.5 7.5 3.7 5.2 6.4 8.7 12.2 12.6 12.7 13.0 13.4 13.2 12.7 12.0 12.7 12.2 11.7 12.9 8.8 8.5 7.5 4.9 6.0 2.5 0.6 0.0 0.0 0.0 0.0 0.0 0.0 0.0 0.0 0.0 0.0
13.5 13.1 12.2 10.4 10.1 10.3 5.5 5.5 4.9 5.7 7.4 12.1 13.1 12.9 13.2 12.3 11.8 12.7 11.8 9.5 9.2 9.1 8.3 9.5 8.1 8.4 5.1 2.8 0.0 0.0 0.0 0.0 0.0 0.0 0.0 0.0 0.0 0.0
13.9 13.6 13.3 13.2 10.9 10.5 11.7 11.7 11.3 10.0 9.9 9.6 12.0 12.2 11.7 10.9 10.4 10.1 9.3 11.3 11.4 10.5 7.5 12.3 11.6 9.5 6.8 5.0 0.0 0.0 0.0 0.0 0.0 0.0 0.0 0.0 0.0 0.0
13.0 13.3 13.0 13.4 5.8 5.7 12.6 12.9 13.1 12.1 6.1 4.5 6.3 4.8 4.8 2.6 5.8 10.6 13.0 12.9 13.6 12.6 10.0 11.8 12.4 10.6 9.0 8.3 6.4 0.0 0.0 0.0 0.0 0.0 0.0 0.0 0.0 0.0
13.8 13.0 9.9 10.5 6.3 5.4 13.0 13.3 15.0 13.1 12.4 12.2 11.4 9.5 7.3 6.2 4.0 10.0 12.3 13.7 13.4 14.1 11.8 12.1 12.2 10.9 12.7 10.5 9.5 7.4 5.1 0.0 0.0 0.0 0.0 0.0 0.0 1.5
15.4 14.9 13.6 10.2 8.8 7.6 7.3 14.6 13.7 10.0 11.6 13.1 13.3 12.8 11.9 11.8 11.2 9.1 9.3 10.6 12.7 12.5 8.7 9.1 12.3 12.6 12.6 13.4 12.2 10.1 9.6 8.7 8.1 6.7 0.0 0.0 0.0 0.0
17.0 15.7 15.1 11.4 10.6 10.7 12.4 9.4 10.3 12.1 15.0 15.2 15.5 14.0 13.7 12.8 12.2 11.5 10.6 10.0 9.3 10.0 8.0 8.5 13.3 12.7 13.5 14.5 14.3 12.1 12.1 10.6 9.9 10.1 10.0 5.4 1.9 0.4
15.7 14.8 13.2 12.9 13.1 14.4 12.8 12.0 13.4 16.4 15.6 16.7 16.3 15.6 13.6 13.0 11.7 12.4 11.8 11.5 11.7 11.2 9.2 9.9 11.9 12.3 12.8 14.0 14.6 13.9 13.6 12.5 11.0 11.6 12.0 11.6 11.2 11.5
15.8 18.7 16.2 15.0 14.9 15.4 17.3 16.9 16.2 17.8 17.9 16.8 16.2 15.0 14.7 15.1 15.0 13.3 13.6 13.5 14.0 13.9 11.5 11.4 11.3 12.2 13.4 13.4 13.7 14.6 13.8 14.9 13.1 12.5 12.3 12.0 11.8 11.3
17.0 19.3 19.9 19.8 19.6 19.2 18.7 18.3 18.3 18.2 18.4 18.5 18.2 16.2 15.0 14.4 14.6 14.2 14.0 14.2 15.1 15.3 15.1 13.4 12.1 12.2 12.6 13.3 15.1 14.5 14.5 14.6 13.5 13.0 13.8 14.0 12.8 12.5
19.9 21.2 21.6 21.2 21.0 20.6 20.4 20.0 19.3 18.5 19.1 18.4 18.3 17.7 16.8 16.2 16.2 15.4 15.1 16.0 16.6 16.2 16.1 15.4 15.2 15.7 15.8 15.0 12.6 15.4 15.4 15.1 14.2 14.4 14.0 15.6 15.5 13.3
21.1 21.8 22.1 22.2 22.3 22.4 21.7 21.1 21.2 19.6 18.6 19.4 19.2 19.3 18.0 17.8 16.7 17.7 17.0 16.5 17.2 17.4 17.0 16.0 16.2 17.1 19.4 19.9 16.4 9.7 15.7 15.8 16.0 16.5 15.7 16.0 16.5 15.1
22.2 22.4 22.4 22.4 22.5 22.5 22.6 23.0 22.7 22.3 21.5 20.6 20.6 20.3 20.6 19.9 19.8 19.5 19.4 19.2 19.1 18.7 18.4 18.3 17.8 17.5 18.9 19.2 19.5 18.3 12.9 16.4 17.0 17.9 18.7 17.9 15.8 12.7
22.8 22.9 23.1 23.1 23.0 23.0 22.9 23.0 23.2 22.6 22.1 22.6 22.0 21.5 21.3 21.4 21.3 20.9 20.5 16.9 18.5 20.2 20.9 20.2 19.1 14.8 18.7 19.9 21.9 21.2 19.2 13.5 13.9 17.3 19.7 19.9 20.0 20.4
22.9 23.0 23.3 23.7 23.7 23.8 23.7 23.6 23.5 23.3 22.9 22.6 22.7 22.7 22.2 22.1 22.3 22.0 22.0 22.1 21.5 20.3 20.1 19.8 20.6 20.9 21.2 21.3 22.3 22.2 20.9 20.4 18.0 15.2 13.9 14.7 20.2 22.7
22.8 23.1 23.5 23.6 23.8 24.0 24.2 24.4 24.4 24.2 24.0 23.9 23.7 23.4 23.2 23.0 22.5 22.7 22.5 22.5 22.9 22.8 22.3 22.2 22.0 22.5 22.4 22.4 22.1 23.1 23.1 22.5 22.3 22.2 21.6 15.9 14.6 14.0